PEGASUS DEB

Satellite information

Favourite Embed

Satellite Type and Status

DEBRISIN ORBIT

Key statistics

Satellite PEGASUS DEB at a glance.

Uptime

11434

Days in orbit

Revolutions

≈ 14.9

Per day

Orbit

LEO

Low Earth Orbit

Inclination

81.6

Latest

Satellite identification and parameters

Extended collection of information and parameters for PEGASUS DEB.

Object identification

Identified? True

Debris? True

Object name: PEGASUS DEB

International designator: 1994-029AFV

Object number (NORAD): 39922

Object ID (CCSDS): 39922

Country: UNITED STATES OF AMERICA (US)

Current information (Y/N): Y

RCS size: SMALL

Orbital parameters

Period: 96.8 minutes

Inclination: 81.5861 deg

SMA: 6983.581 km

Apoapsis: 689.152 km

Periapsis: 521.739 km

RAAN: 280.6978 deg

Eccentricy: 0.01198615

Argument of periapsis: 187.9613 deg

Mean anomaly: 171.9705 deg

Mean motion: 14.87597804 rev/day

Mean motion (dot): 0.00012964 rev/day2

B* drag term: 0.0012459321 1/REarth

Two-line elements (TLE)

Creation date: Sept. 3, 2025, 2:21 a.m.

Reference frame: TEME

Reference center: EARTH

Epoch: Sept. 2, 2025, 7:26 p.m. UTC

TLE line 0: 0 PEGASUS DEB

TLE line 1: 1 39922U 94029AFV 25245.81004729 .00012964 00000-0 12459-2 0 9993

TLE line 2: 2 39922 81.5861 280.6978 0119861 187.9613 171.9705 14.87597804601984

Live tracking on map

Real-time ground track for satellite PEGASUS DEB.

In-orbit conjunctions

A list of the most updated potential collisions computed for object PEGASUS DEB.

Target Orbit TCA Probability of collision Miss distance Type
CZ-6 R/B LEO 2025-02-07 21:31:25 0.0001495763 238.0 (m) ROCKET BODY
DELTA 4 DEB SSO 2024-08-04 03:04:10 0.0001308714 366.0 (m) DEBRIS

Associated space launch

PEGASUS DEB was lifted into orbit during the mission ‘Pegasus HAPS | Space Test Experiments Platform 2 (STEP-2)’, on board a Pegasus HAPS space rocket.

The launch took place on May 19, 1994, 5:03 p.m. from Edwards Air Force Base.

For more information about the launch, click the button.

Launch to space Pegasus HAPS | Space Test Experiments Platform 2 (STEP-2)
Pegasus HAPS | Space Test Experiments Platform 2 (STEP-2)

Agency: N/A

Status: Launch Successful

Launch date: May 19, 1994, 5:03 p.m. UTC

Rocket: Pegasus HAPS

Launch pad: Edwards Air Force Base

Location: Air launch to orbit

...

Latest news about this satellite

There are no fresh news available about this satellite. Check back as we update our databases every day.


Newsletter sign-up

Weekly statistics, charts and insights to help you stay on top of the space industry.